Tracking 28356 objects as of 8-Dec-2023
HD Live streaming from Space Station
objects crossing your sky now

CZ-6A DEB

Track CZ-6A DEB now!
10-day predictions


NORAD ID: 54267
Int'l Code: 2022-151J
Perigee: 696.4 km
Apogee: 840.3 km
Inclination: 98.9 °
Period: 100.1 minutes
Semi major axis: 7139 km
RCS: Unknown
Launch date: November 11, 2022
Source: People's Republic of China (PRC)
Launch site: Taiyaun Space Center, China (TSC)

Note: This is SATELLITE DEBRIS
Your satellite tracking list
Your tracking list is empty




NASA's NSSDC Master Catalog

Two Line Element Set (TLE):
1 54267U 22151J   23341.54436119  .00002025  00000-0  63092-3 0  9993
2 54267  98.8915   6.0037 0100787 146.2764 214.4890 14.39183496 56091
Source of the keplerian elements: AFSPC